Location: Amsterdam
(30.7274°N, 84.4357°W)
Time: 20:09:31
(UTC+00:00)

Altair - Pass Details

Date: 13 August 2024
Orbit: 1501 x 1682 km, 47.2° (Epoch: 07 September)

Event Time Altitude Azimuth Distance (km) Brightness Sun altitude
Rises 17:11:42 0° 249° (WSW) 4,911 10.1 72.2°
Reaches altitude 10° 17:15:01 10° 253° (WSW) 3,911 9.8 72.5°
Maximum altitude 17:24:45 54° 329° (NNW) 1,919 8.7 73.1°
Drops below altitude 10° 17:34:11 10° 46° (NE) 3,788 9.6 73.5°
Sets 17:37:21 0° 51° (NE) 4,749 10.0 73.6°
